[Iaude] MPEC U287: 2023 UH10 [a=2.43,e=0.74,i=4.1,H=23.1]

mpec at marsden.cfa.harvard.edu mpec at marsden.cfa.harvard.edu
Mon Oct 30 16:43:14 EDT 2023


M.P.E.C. 2023-U287                             Issued 2023 October 30, 20:41 UT

     The Minor Planet Electronic Circulars contain information on unusual
         minor planets, routine data on comets and natural satellites,
         and occasional editorial announcements.  They are published
    on behalf of Division F of the International Astronomical Union by the
          Minor Planet Center, Smithsonian Astrophysical Observatory,
                          Cambridge, MA 02138, U.S.A.
			  
             Prepared using the Tamkin Foundation Computer Network

                              MPC at CFA.HARVARD.EDU
            URL https://www.minorplanetcenter.net/    ISSN 1523-6714

                                   2023 UH10                                    


Observations:
     K23U10H* C2023 10 23.35766702 05 47.597+10 55 58.43         21.27wXEU287F51
     K23U10H  C2023 10 23.36546802 05 46.477+10 55 56.69         21.41wXEU287F51
     K23U10H  C2023 10 23.37345002 05 45.327+10 55 54.54         21.85wXEU287F51
     K23U10H  C2023 10 23.46269402 05 31.444+10 55 23.80         21.3 GVEU287H01
     K23U10H  C2023 10 23.46627402 05 30.937+10 55 22.76         21.4 GVEU287H01
     K23U10H  C2023 10 23.47734802 05 29.405+10 55 19.65         21.8 GVEU287H01
     K23U10H  C2023 10 23.48672202 05 28.091+10 55 17.01         21.6 GVEU287H01
     K23U10H KC2023 10 24.23630702 03 45.41 +10 51 55.9          21.3 VuEU287H21
     K23U10H KC2023 10 24.24472502 03 44.13 +10 51 53.7          21.3 VuEU287H21
     K23U10H KC2023 10 24.25351802 03 42.78 +10 51 51.1          21.5 VuEU287H21
     K23U10H  C2023 10 25.28609302 01 09.821+10 46 53.55         21.2 GVEU287654
     K23U10H  C2023 10 25.29812102 01 07.820+10 46 49.97         21.2 GVEU287654

Observer details:
654 Table Mountain Observatory, Wrightwood-PHMC.  Observers N. Evans, P. Choi,
    N. Saini, C. Zhai, R. Trahan, M. Shao.  1.0-m Reflector + CCD.
F51 Pan-STARRS 1, Haleakala.  Observers J. Bulger, T. Lowe, P. Minguez, A.
    Schultz, I. Smith.  Measurers K. Chambers, T. de Boer, J. Fairlamb, H.
    Gao, M. Huber, C.-C. Lin, E. Magnier, Y. Ramanjooloo, R. Wainscoat, R.
    Weryk.  1.8-m Ritchey-Chretien + CCD.
H01 Magdalena Ridge Observatory, Socorro.  Observers W. H. Ryan, E. V. Ryan.
    Measurer W. H. Ryan.  2.4-m f/8.9 Ritchey-Chretien + CCD.
H21 Astronomical Research Observatory, Westfield.  Observer R. Holmes.
    Measurers T. Linder, R. Holmes, L. Horn.  0.81-m f/4.0 astrograph + CCD.

Orbital elements:
2023 UH10                                                Earth MOID = 0.0001 AU
Epoch 2023 Sept. 13.0 TT = JDT 2460200.5                MPC                     
M 330.80508              (2000.0)            P               Q                  
n   0.25965982     Peri.   97.25119     -0.68821163     -0.72428768             
a   2.4333218      Node    36.35488     +0.63447496     -0.62898305             
e   0.7393017      Incl.    4.07227     +0.35186117     -0.28246713             
P   3.80           H   23.11          G   0.15           U   9                  
Residuals in seconds of arc
231023 F51  0.0   0.0     231023 H01  0.0   0.1-    231024 H21  0.1+  0.3+
231023 F51  0.0   0.2+    231023 H01  0.1+  0.1-    231024 H21  0.2-  0.1+
231023 F51  0.1-  0.0     231023 H01  0.1-  0.0     231025 654  0.2+  0.1-
231023 H01  0.1+  0.1-    231024 H21  0.1+  0.1+    231025 654  0.2-  0.0

Ephemeris:
2023 UH10                a,e,i = 2.43, 0.74, 4                   q = 0.6344
Date    TT    R. A. (2000) Decl.     Delta      r    Elong.  Phase     V
2023 09 30    02 28 28.7 +11 32 24   0.6578  1.5965   147.6    19.6    24.2
...
2023 10 15    02 19 35.7 +11 21 49   0.4413  1.4275   164.5    10.8    22.8
...
2023 10 23    02 06 34.1 +10 57 34   0.3400  1.3343   175.4     3.4    21.7
...
2023 10 29    01 50 08.2 +10 25 11   0.2708  1.2632   174.2     4.5    21.2
2023 10 30    01 46 35.5 +10 18 00   0.2598  1.2513   172.4     6.0    21.1
2023 10 31    01 42 45.4 +10 10 08   0.2491  1.2393   170.5     7.6    21.1
...
2023 11 06    01 11 40.6 +09 02 40   0.1884  1.1671   156.9    19.4    20.8
...
2023 11 14    23 50 58.0 +05 34 45   0.1219  1.0703   128.9    46.0    20.4
...
2023 11 29    18 32 59.9 -09 34 48   0.1179  0.8921    34.7   141.0    25.2

A. U. Tomatic                (C) Copyright 2023 MPC           M.P.E.C. 2023-U287





More information about the Iaude mailing list